Theta_e
338 336 337 338 338 336 336 338 337 335 335 334 336 336 335 337 339 338 339 340 338 339 334 334 333 335 339 340 337 334 334 335 335 336 337 339 341 341 339 342 340 338 338
334 337 340 338 338 337 337 336 336 335 334 335 334 336 338 336 337 337 337 337 336 335 339 331 332 332 332 333 333 335 332 330 334 335 337 341 342 341 339 342 338 332 329
335 338 339 339 337 337 336 335 335 337 336 337 337 336 337 338 335 334 336 338 330 332 333 333 333 334 333 334 337 335 339 338 332 333 338 340 344 342 334 335 333 331 332
338 339 339 337 336 335 335 337 337 335 335 336 337 337 341 333 332 337 341 331 329 332 332 332 330 330 333 338 342 336 340 341 342 335 331 337 342 338 336 333 332 332 334
337 338 337 336 336 335 335 336 336 336 334 336 339 337 341 339 341 340 329 331 335 334 334 333 333 329 330 339 342 340 342 341 343 343 339 330 334 334 335 335 333 332 332
336 336 335 335 336 336 335 337 337 334 336 338 341 340 334 333 331 330 334 335 333 333 333 333 332 332 329 331 339 340 342 344 343 343 340 330 329 332 332 334 335 335 334
338 335 336 334 335 335 334 335 335 335 336 338 335 334 332 332 337 336 335 335 335 336 336 336 335 339 340 342 344 345 345 345 344 344 343 337 329 330 330 330 331 334 333
343 337 336 334 334 333 331 335 336 337 334 336 329 326 328 332 337 335 335 336 337 338 338 337 337 339 344 345 347 346 346 344 343 341 343 343 330 332 330 330 332 333 330
337 335 335 332 331 331 332 335 333 334 334 327 325 325 326 333 333 332 334 337 338 339 339 338 338 338 340 343 345 338 337 342 343 341 344 340 331 330 328 330 329 330 329
332 328 329 326 330 333 332 332 331 327 324 324 326 328 332 333 333 334 336 338 339 339 339 340 343 343 342 344 338 340 339 338 344 342 344 341 334 333 333 330 329 329 330
342 341 334 322 324 328 330 330 326 325 325 326 329 331 332 332 334 335 337 338 338 338 340 345 348 346 346 345 346 338 337 340 341 343 343 342 338 337 337 337 333 331 330
342 343 337 326 325 326 326 326 327 329 331 335 343 344 341 338 335 336 337 337 340 342 342 346 348 351 348 351 346 346 338 342 342 343 342 339 338 340 338 339 338 336 335
341 346 344 324 324 325 326 332 345 346 348 349 349 347 348 343 340 339 341 343 344 345 345 343 342 345 345 346 347 346 346 346 345 341 345 345 341 341 341 342 341 341 339
342 347 339 328 326 330 331 340 344 346 346 342 345 342 343 346 345 346 344 344 339 334 339 335 342 344 344 347 347 347 347 346 345 345 344 345 344 343 343 343 343 343 343
341 346 340 337 331 343 343 336 341 346 347 338 344 344 345 338 340 338 339 336 336 333 335 338 343 345 344 348 348 348 348 346 347 346 346 346 347 344 342 342 343 344 344
342 342 341 338 337 339 342 345 342 343 347 346 347 339 341 341 342 340 338 340 337 341 343 346 347 347 347 346 345 342 345 345 346 344 346 347 348 350 347 345 343 344 344
341 340 342 342 340 341 342 345 348 346 349 347 349 346 344 344 347 345 344 344 347 346 345 347 346 344 345 345 342 345 345 346 346 345 346 347 348 349 350 349 347 345 343
340 340 341 341 341 341 343 350 348 349 346 348 348 344 339 341 342 343 347 345 348 346 345 346 348 346 345 338 343 341 341 346 346 346 346 348 347 343 349 350 349 348 344
339 339 340 341 343 341 347 349 348 347 346 348 347 347 344 342 341 341 341 344 347 346 348 346 348 347 345 342 342 341 342 346 345 345 344 346 346 346 347 344 350 349 347
339 339 341 339 341 340 345 345 349 346 348 346 346 346 346 347 345 346 341 344 342 345 345 347 345 346 345 339 337 342 343 346 343 345 346 345 346 346 346 347 348 349 349
339 339 341 341 340 338 341 342 347 346 346 344 343 344 342 348 348 348 345 343 341 341 342 343 343 342 341 341 343 343 344 344 343 344 343 342 339 345 345 345 347 347 348
340 340 341 342 342 342 336 342 345 343 341 343 341 341 345 350 350 350 349 344 343 345 340 338 336 343 342 343 342 341 344 342 337 339 339 339 333 337 339 336 335 335 337
341 341 341 342 344 343 343 339 336 340 345 348 349 345 347 350 349 347 347 346 346 346 341 340 342 342 343 342 341 340 342 344 339 334 331 329 330 333 331 334 333 335 337
343 342 342 343 343 344 344 344 340 344 347 348 347 349 348 347 349 347 345 345 344 343 342 343 343 341 342 343 343 343 342 344 343 340 333 327 326 326 328 330 337 340 343
344 343 343 344 343 342 346 345 341 347 348 347 346 346 347 347 347 344 341 339 341 345 344 344 342 341 341 343 343 340 342 340 337 338 339 330 324 327 331 339 339 334 332
345 345 343 345 345 344 344 345 345 348 345 345 345 345 346 347 346 345 344 338 343 340 340 342 342 340 339 341 339 337 332 330 329 330 330 326 321 324 332 336 330 325 324
Wind_Speed
16 14 13 13 14 14 14 14 15 17 16 18 17 18 17 17 17 17 15 15 15 15 14 14 13 14 14 15 14 12 11 11 12 12 13 14 14 16 16 17 19 22 22
17 15 14 14 15 14 15 15 16 16 16 16 16 17 17 16 17 16 16 16 15 14 13 14 14 15 16 16 16 14 13 13 13 13 13 14 14 14 14 16 20 21 22
17 16 15 14 15 15 15 15 15 15 15 16 16 16 16 16 16 16 16 15 15 15 15 15 15 16 17 18 18 15 16 16 15 14 13 11 12 12 12 14 19 20 20
16 16 15 15 14 14 14 14 15 15 15 15 16 15 15 14 14 15 15 15 16 16 15 15 15 15 17 17 14 15 17 13 14 13 11 10 9 11 10 14 17 18 16
17 16 16 15 15 14 14 14 15 15 15 15 16 14 15 13 14 15 16 17 16 16 15 15 15 15 15 17 14 13 11 9 7 8 6 7 8 9 10 12 14 15 15
15 15 15 15 15 14 14 15 15 15 15 15 14 14 13 14 16 17 17 16 16 16 16 16 16 15 14 12 10 12 11 8 11 7 5 5 8 10 11 11 12 12 12
17 14 13 14 14 14 14 15 15 15 15 15 14 13 13 14 15 16 17 16 15 14 15 16 17 17 16 12 8 7 6 7 6 3 3 5 3 9 11 11 11 11 12
13 13 12 14 14 13 13 14 14 15 14 14 12 12 14 15 15 16 16 15 14 14 15 16 16 14 12 10 7 5 5 4 2 3 4 2 2 8 9 10 10 11 11
14 13 13 13 13 14 15 15 15 15 15 14 13 14 15 16 17 17 15 14 13 12 12 12 12 11 8 7 7 10 6 3 2 2 2 3 2 7 8 8 9 9 10
15 14 12 13 14 14 15 15 16 16 17 18 18 18 18 17 15 14 12 12 10 7 6 7 8 7 5 8 10 13 13 8 6 6 3 2 3 6 6 8 9 9 9
17 15 13 14 16 14 15 17 18 19 19 20 20 20 18 17 15 13 12 9 7 6 6 6 7 4 2 3 2 12 7 6 6 3 6 7 4 5 3 6 8 9 9
15 16 13 14 18 17 18 20 22 24 24 22 19 17 16 16 15 12 10 7 5 3 4 5 6 5 1 1 5 3 11 5 5 5 3 6 5 5 5 3 5 8 9
11 14 13 17 20 22 22 24 24 23 22 16 13 11 13 14 14 11 9 7 3 1 2 8 4 3 4 3 4 5 6 8 2 3 4 5 3 4 4 3 2 3 3
14 14 15 18 20 25 23 24 22 19 15 15 16 12 7 8 9 8 6 6 4 5 1 3 4 2 4 2 3 4 5 4 7 9 6 6 4 1 3 4 4 3 3
17 18 17 18 21 22 23 21 18 15 13 12 14 5 6 8 7 3 7 3 3 4 6 5 4 3 3 5 6 4 7 6 5 5 3 4 3 3 3 1 3 4 5
18 21 20 17 18 17 18 15 17 15 11 14 11 9 8 10 6 7 7 10 6 5 7 3 2 2 4 6 6 8 10 12 12 12 6 5 2 3 2 1 1 2 3
22 24 21 18 18 17 15 15 15 14 13 12 11 8 5 4 5 7 5 10 5 3 1 2 2 3 5 1 1 5 9 9 8 15 10 11 3 4 7 5 2 2 4
25 25 22 22 22 21 17 15 18 16 14 13 12 7 4 5 4 3 4 5 4 2 4 2 3 5 4 5 7 11 9 8 9 8 10 13 10 11 11 12 4 2 5
24 24 22 24 25 25 22 19 18 18 19 13 11 9 7 7 5 3 3 3 2 2 2 1 3 4 5 7 10 12 9 10 11 8 2 9 15 15 8 10 10 7 2
24 22 22 16 26 29 28 24 18 18 13 13 8 7 8 14 10 8 6 7 6 7 9 9 10 10 9 11 12 14 11 9 7 3 5 2 6 11 11 8 9 6 5
23 24 22 18 16 19 30 30 22 17 13 13 11 10 7 12 14 14 13 10 12 15 17 14 16 13 14 15 12 10 7 2 3 5 6 8 6 8 6 3 6 6 9
26 26 23 19 19 15 14 29 23 16 11 11 18 14 11 20 19 16 15 15 15 15 15 15 11 10 13 11 10 7 6 8 11 11 12 12 9 11 7 8 8 6 4
30 29 27 22 23 21 17 20 25 20 14 11 11 17 16 20 15 14 11 12 15 18 17 15 11 9 9 14 12 8 5 7 11 10 12 12 11 11 10 9 7 3 3
33 31 28 22 26 25 23 19 21 22 17 16 15 13 19 20 18 15 13 15 13 16 12 11 10 9 8 8 9 8 10 9 9 9 10 8 8 10 9 10 12 12 11
33 34 30 25 28 28 25 21 23 24 21 19 17 16 15 17 21 21 20 17 18 15 10 12 11 9 6 3 4 5 7 6 8 9 9 7 14 15 14 17 19 14 9
35 31 33 29 29 30 28 26 24 24 20 19 20 21 21 23 24 29 31 28 24 24 19 14 13 8 8 7 7 9 9 7 5 5 6 3 13 17 16 13 10 9 5
Wind_Direction
165 150 147 141 137 134 127 122 119 125 122 122 123 126 125 128 126 126 127 128 128 127 118 118 115 113 113 116 118 117 117 117 117 113 119 124 122 121 124 135 143 145 146
155 151 150 142 136 132 126 125 122 122 118 116 118 120 124 122 122 123 124 122 122 116 111 110 109 111 113 117 113 103 112 119 116 118 126 130 126 120 122 130 141 142 143
156 152 147 143 137 133 132 127 124 121 118 117 116 115 116 114 113 116 116 112 114 113 113 113 116 118 122 125 118 97 109 105 115 119 121 123 131 123 125 136 139 144 146
154 151 149 146 141 138 135 131 127 124 120 118 118 118 112 109 113 116 116 113 111 113 115 116 118 123 127 129 122 101 98 115 98 90 119 137 142 142 143 147 145 150 153
151 151 147 145 144 142 140 136 130 125 121 123 117 115 112 108 115 117 119 115 114 115 114 114 116 122 129 131 121 107 97 104 124 93 69 127 166 162 160 157 159 159 161
142 149 150 150 146 144 138 132 130 126 128 124 121 117 120 117 115 120 117 117 115 112 108 106 105 117 119 123 114 112 109 105 141 146 147 111 166 173 167 167 168 169 171
143 149 152 152 149 146 138 134 136 133 132 124 125 128 121 123 122 122 119 117 113 108 102 98 99 107 117 123 117 96 86 91 117 182 167 97 171 191 171 171 172 174 175
144 145 154 154 154 150 139 139 135 136 130 125 124 126 130 130 126 124 121 119 113 107 99 92 92 100 120 135 142 103 68 57 52 74 97 116 195 201 179 169 172 179 181
142 145 153 156 150 146 147 142 137 134 127 124 123 129 134 131 130 124 120 115 108 100 94 96 98 106 131 137 102 48 29 328 217 42 253 85 208 220 198 184 179 183 182
125 135 146 152 150 146 144 137 132 128 127 127 129 131 130 125 122 118 113 105 100 98 100 103 103 104 131 119 89 40 36 328 231 246 254 158 191 216 201 199 190 187 187
123 129 124 150 147 143 141 138 133 130 128 125 125 123 122 121 124 123 122 119 129 138 137 130 120 124 161 149 132 51 22 341 210 257 245 195 193 201 180 186 197 197 196
128 129 120 141 142 140 137 135 131 125 122 120 119 121 127 125 131 130 123 125 132 139 167 168 115 98 75 251 359 34 64 129 118 74 201 203 196 203 199 155 180 193 197
137 140 131 132 137 133 134 134 129 128 126 126 124 128 131 133 130 128 122 129 114 34 33 12 344 89 76 348 296 359 9 65 109 29 52 103 176 200 206 246 200 179 178
167 151 136 127 136 130 131 141 131 128 124 135 134 129 140 148 137 138 146 136 181 358 206 125 40 81 115 13 356 303 345 68 19 17 41 47 63 143 207 245 269 255 240
177 163 148 134 141 135 133 142 142 130 132 146 130 136 143 155 115 174 207 182 196 153 203 168 62 65 42 351 316 320 355 342 343 6 12 18 83 43 79 238 263 275 270
174 165 160 146 149 156 152 150 142 139 133 136 128 139 157 145 148 142 190 160 132 140 146 133 75 34 4 346 350 340 337 316 297 298 289 325 353 276 309 25 258 285 289
177 170 175 169 171 178 185 174 166 154 151 155 128 133 159 152 130 128 146 164 96 118 91 149 237 313 254 145 346 352 11 350 313 280 273 267 241 271 279 262 319 344 321
181 181 183 184 185 188 193 172 169 176 179 172 161 150 157 178 174 161 136 116 91 7 172 224 145 96 231 254 285 303 305 309 329 339 253 251 257 291 271 258 256 276 322
192 194 198 201 197 194 196 180 179 194 189 186 185 199 182 199 220 210 193 211 225 59 113 192 176 246 287 287 284 284 276 311 342 326 247 237 262 271 244 271 239 244 259
197 201 205 212 210 193 197 191 186 179 177 193 194 197 228 215 204 194 205 212 225 229 249 254 275 275 282 300 292 289 273 282 306 318 101 159 263 240 237 213 243 243 239
199 201 210 205 185 198 205 201 193 190 189 190 212 218 227 211 209 211 218 215 232 243 258 279 270 276 292 292 271 251 256 312 125 161 168 153 126 126 112 147 241 232 222
201 206 213 215 200 195 198 201 198 194 208 222 214 231 209 197 205 220 234 244 252 267 270 272 271 281 279 277 276 264 177 129 110 112 136 164 133 156 174 144 166 211 223
204 210 214 216 209 206 200 196 211 205 212 226 229 235 210 196 203 211 236 257 270 278 282 275 262 272 271 282 278 252 212 193 148 124 107 109 127 139 142 131 122 136 174
214 215 214 219 214 207 203 200 195 200 219 236 228 216 203 212 220 239 252 266 262 264 280 283 266 272 276 279 280 263 237 221 210 176 145 91 84 112 132 125 131 129 131
215 215 216 219 217 215 209 205 207 212 222 228 238 237 232 240 234 236 270 266 269 257 276 259 268 271 270 248 207 197 205 212 220 212 203 150 85 91 109 118 121 116 107
213 221 222 218 215 214 214 217 220 220 228 235 241 246 247 243 254 268 264 261 281 261 270 274 268 261 257 246 219 202 209 213 195 221 211 202 109 98 107 118 118 97 74